Time,TemperatureF,DewpointF,PressureIn,WindDirection,WindDirectionDegrees,WindSpeedMPH,WindSpeedGustMPH,Humidity,HourlyPrecipIn,Conditions,Clouds,dailyrainin,SoftwareType,DateUTC
2013-12-23 00:00:00,22.4,20.7,30.41,NNW,342,0.0,2.0,93,0.00,,---,0.00,VWS V14.01,2013-12-23 06:00:00,
2013-12-23 00:01:00,22.3,20.3,30.41,NNW,342,0.0,0.0,92,0.00,,---,0.00,VWS V14.01,2013-12-23 06:01:00,
2013-12-23 00:05:00,22.4,20.7,30.41,NNW,342,0.0,0.0,93,0.00,,---,0.00,VWS V14.01,2013-12-23 06:05:00,
2013-12-23 00:08:00,22.5,20.8,30.41,NNW,342,0.0,0.0,93,0.00,,---,0.00,VWS V14.01,2013-12-23 06:08:00,
2013-12-23 00:11:00,22.7,21.0,30.41,NNW,342,1.0,1.0,93,0.00,,---,0.00,VWS V14.01,2013-12-23 06:11:00,
2013-12-23 00:14:00,22.7,21.0,30.41,NNW,342,0.0,2.0,93,0.00,,---,0.00,VWS V14.01,2013-12-23 06:14:00,
2013-12-23 00:17:00,22.7,21.0,30.41,NNW,342,0.0,2.0,93,0.00,,---,0.00,VWS V14.01,2013-12-23 06:17:00,
2013-12-23 00:20:00,22.9,21.2,30.41,NNW,342,0.0,2.0,93,0.00,,---,0.00,VWS V14.01,2013-12-23 06:20:00,
2013-12-23 00:23:00,23.0,21.3,30.41,NNW,342,1.0,2.0,93,0.00,,---,0.00,VWS V14.01,2013-12-23 06:23:00,
2013-12-23 00:26:00,23.0,21.3,30.40,NNW,342,1.0,2.0,93,0.00,,---,0.00,VWS V14.01,2013-12-23 06:26:00,
2013-12-23 00:29:00,22.9,21.2,30.40,NNW,342,1.0,2.0,93,0.00,,---,0.00,VWS V14.01,2013-12-23 06:29:00,
2013-12-23 00:30:00,22.9,21.2,30.40,NNW,342,1.0,2.0,93,0.00,,---,0.00,VWS V14.01,2013-12-23 06:30:00,
2013-12-23 00:32:00,23.0,21.3,30.40,NNW,342,1.0,2.0,93,0.00,,---,0.00,VWS V14.01,2013-12-23 06:32:00,
2013-12-23 00:35:00,22.9,21.2,30.40,NNW,342,1.0,2.0,93,0.00,,---,0.00,VWS V14.01,2013-12-23 06:35:00,
2013-12-23 00:38:00,22.8,21.1,30.40,NNW,342,1.0,2.0,93,0.00,,---,0.00,VWS V14.01,2013-12-23 06:38:00,
2013-12-23 00:41:00,22.7,21.0,30.40,NNW,342,1.0,2.0,93,0.00,,---,0.00,VWS V14.01,2013-12-23 06:41:00,
2013-12-23 00:44:00,22.6,20.9,30.40,NNW,342,1.0,2.0,93,0.00,,---,0.00,VWS V14.01,2013-12-23 06:44:00,
2013-12-23 00:47:00,22.5,20.5,30.39,NNW,342,0.0,2.0,92,0.00,,---,0.00,VWS V14.01,2013-12-23 06:47:00,
2013-12-23 00:50:00,22.4,20.4,30.39,NNW,342,0.0,2.0,92,0.00,,---,0.00,VWS V14.01,2013-12-23 06:50:00,
2013-12-23 00:53:00,22.4,20.7,30.40,NNW,342,0.0,2.0,93,0.00,,---,0.00,VWS V14.01,2013-12-23 06:53:00,
2013-12-23 00:56:00,22.2,20.2,30.40,NNW,342,1.0,2.0,92,0.00,,---,0.00,VWS V14.01,2013-12-23 06:56:00,
2013-12-23 00:59:00,21.8,19.8,30.40,NNW,342,1.0,2.0,92,0.00,,---,0.00,VWS V14.01,2013-12-23 06:59:00,
2013-12-23 01:00:00,21.8,19.8,30.40,NNW,342,0.0,2.0,92,0.00,,---,0.00,VWS V14.01,2013-12-23 07:00:00,
2013-12-23 01:02:00,21.7,19.7,30.40,NNW,342,0.0,2.0,92,0.00,,---,0.00,VWS V14.01,2013-12-23 07:02:00,
2013-12-23 01:05:00,22.0,20.0,30.40,NNW,342,2.0,2.0,92,0.00,,---,0.00,VWS V14.01,2013-12-23 07:05:00,
2013-12-23 01:08:00,22.1,20.4,30.41,NNW,342,1.0,2.0,93,0.00,,---,0.00,VWS V14.01,2013-12-23 07:08:00,
2013-12-23 01:11:00,22.3,20.6,30.41,NNW,341,3.0,3.0,93,0.00,,---,0.00,VWS V14.01,2013-12-23 07:11:00,
2013-12-23 01:14:00,22.5,20.8,30.41,SSW,209,2.0,4.0,93,0.00,,---,0.00,VWS V14.01,2013-12-23 07:14:00,
2013-12-23 01:17:00,22.8,21.1,30.42,SSW,210,4.0,4.0,93,0.00,,---,0.00,VWS V14.01,2013-12-23 07:17:00,
2013-12-23 01:20:00,23.3,21.6,30.42,SW,224,4.0,6.0,93,0.00,,---,0.00,VWS V14.01,2013-12-23 07:20:00,
2013-12-23 01:23:00,23.6,22.1,30.42,SW,216,1.0,6.0,94,0.00,,---,0.00,VWS V14.01,2013-12-23 07:23:00,
2013-12-23 01:26:00,23.7,22.0,30.42,SW,216,1.0,6.0,93,0.00,,---,0.00,VWS V14.01,2013-12-23 07:26:00,
2013-12-23 01:29:00,23.6,21.9,30.42,SW,216,0.0,6.0,93,0.00,,---,0.00,VWS V14.01,2013-12-23 07:29:00,
2013-12-23 01:30:00,23.6,21.9,30.42,SW,216,0.0,6.0,93,0.00,,---,0.00,VWS V14.01,2013-12-23 07:30:00,
2013-12-23 01:32:00,23.4,21.7,30.42,SW,216,0.0,0.0,93,0.00,,---,0.00,VWS V14.01,2013-12-23 07:32:00,
2013-12-23 01:35:00,23.2,21.2,30.42,SW,216,0.0,0.0,92,0.00,,---,0.00,VWS V14.01,2013-12-23 07:35:00,
2013-12-23 01:41:00,22.7,20.7,30.41,SW,216,1.0,3.0,92,0.00,,---,0.00,VWS V14.01,2013-12-23 07:41:00,
2013-12-23 01:44:00,22.6,20.6,30.41,SW,216,1.0,3.0,92,0.00,,---,0.00,VWS V14.01,2013-12-23 07:44:00,
2013-12-23 01:47:00,22.6,20.6,30.41,SW,216,1.0,3.0,92,0.00,,---,0.00,VWS V14.01,2013-12-23 07:47:00,
2013-12-23 01:50:00,22.6,20.9,30.41,SW,216,1.0,3.0,93,0.00,,---,0.00,VWS V14.01,2013-12-23 07:50:00,
2013-12-23 01:56:00,22.6,20.9,30.42,SW,216,0.0,3.0,93,0.00,,---,0.00,VWS V14.01,2013-12-23 07:56:00,
2013-12-23 02:06:00,22.2,20.2,30.42,SW,216,2.0,3.0,92,0.00,,---,0.00,VWS V14.01,2013-12-23 08:06:00,
2013-12-23 02:12:00,21.5,19.3,30.42,SW,216,2.0,3.0,91,0.00,,---,0.00,VWS V14.01,2013-12-23 08:12:00,
2013-12-23 02:15:00,21.3,19.1,30.42,SW,216,2.0,3.0,91,0.00,,---,0.00,VWS V14.01,2013-12-23 08:15:00,
2013-12-23 02:24:00,21.6,19.9,30.43,SW,216,0.0,3.0,93,0.00,,---,0.00,VWS V14.01,2013-12-23 08:24:00,
2013-12-23 02:27:00,21.7,20.0,30.43,SW,216,0.0,3.0,93,0.00,,---,0.00,VWS V14.01,2013-12-23 08:27:00,
2013-12-23 02:30:00,21.8,20.1,30.43,SW,216,0.0,3.0,93,0.00,,---,0.00,VWS V14.01,2013-12-23 08:30:00,
2013-12-23 02:37:00,23.0,21.0,30.41,SW,216,2.0,3.0,92,0.00,,---,0.00,VWS V14.01,2013-12-23 08:37:00,
2013-12-23 02:39:00,21.8,19.8,30.43,SSW,213,0.0,2.0,92,0.00,,---,0.00,VWS V14.01,2013-12-23 08:39:00,
2013-12-23 02:42:00,21.8,19.8,30.43,SSW,213,0.0,2.0,92,0.00,,---,0.00,VWS V14.01,2013-12-23 08:42:00,
2013-12-23 02:45:00,21.7,19.7,30.43,SSW,213,0.0,2.0,92,0.00,,---,0.00,VWS V14.01,2013-12-23 08:45:00,
2013-12-23 02:48:00,21.5,19.5,30.43,SSW,213,0.0,2.0,92,0.00,,---,0.00,VWS V14.01,2013-12-23 08:48:00,
2013-12-23 02:51:00,21.2,19.0,30.43,SSW,213,1.0,2.0,91,0.00,,---,0.00,VWS V14.01,2013-12-23 08:51:00,
2013-12-23 02:52:00,22.6,20.9,30.42,SW,216,0.0,3.0,93,0.00,,---,0.00,VWS V14.01,2013-12-23 08:52:00,
2013-12-23 02:54:00,21.0,18.8,30.44,SSW,213,1.0,2.0,91,0.00,,---,0.00,VWS V14.01,2013-12-23 08:54:00,
2013-12-23 02:57:00,20.9,19.0,30.44,SSW,213,1.0,2.0,92,0.00,,---,0.00,VWS V14.01,2013-12-23 08:57:00,
2013-12-23 02:58:00,22.6,20.6,30.42,SW,216,2.0,3.0,92,0.00,,---,0.00,VWS V14.01,2013-12-23 08:58:00,
2013-12-23 03:00:00,20.7,18.8,30.44,SSW,213,1.0,2.0,92,0.00,,---,0.00,VWS V14.01,2013-12-23 09:00:00,
2013-12-23 03:03:00,20.6,18.6,30.44,SSW,213,1.0,2.0,92,0.00,,---,0.00,VWS V14.01,2013-12-23 09:03:00,
2013-12-23 03:08:00,21.8,19.6,30.42,SW,216,0.0,3.0,91,0.00,,---,0.00,VWS V14.01,2013-12-23 09:08:00,
2013-12-23 03:09:00,20.4,18.5,30.44,SSW,213,1.0,2.0,92,0.00,,---,0.00,VWS V14.01,2013-12-23 09:09:00,
2013-12-23 03:17:00,21.2,19.2,30.42,SW,216,2.0,3.0,92,0.00,,---,0.00,VWS V14.01,2013-12-23 09:17:00,
2013-12-23 03:21:00,20.3,18.4,30.44,SSW,213,0.0,2.0,92,0.00,,---,0.00,VWS V14.01,2013-12-23 09:21:00,
2013-12-23 03:32:00,21.9,20.2,30.43,SSW,213,2.0,2.0,93,0.00,,---,0.00,VWS V14.01,2013-12-23 09:32:00,
2013-12-23 03:33:00,20.3,18.4,30.44,SSW,213,1.0,2.0,92,0.00,,---,0.00,VWS V14.01,2013-12-23 09:33:00,
2013-12-23 03:36:00,20.4,18.7,30.44,SSW,213,0.0,2.0,93,0.00,,---,0.00,VWS V14.01,2013-12-23 09:36:00,
2013-12-23 03:48:00,20.3,18.4,30.44,SSW,213,0.0,2.0,92,0.00,,---,0.00,VWS V14.01,2013-12-23 09:48:00,
2013-12-23 03:51:00,20.1,18.1,30.44,SSW,213,0.0,2.0,92,0.00,,---,0.00,VWS V14.01,2013-12-23 09:51:00,
2013-12-23 03:57:00,20.2,18.2,30.44,SSW,213,0.0,2.0,92,0.00,,---,0.00,VWS V14.01,2013-12-23 09:57:00,
2013-12-23 03:59:00,20.8,18.9,30.44,SSW,213,1.0,2.0,92,0.00,,---,0.00,VWS V14.01,2013-12-23 09:59:00,
2013-12-23 04:00:00,20.2,18.5,30.45,SSW,213,0.0,2.0,93,0.00,,---,0.00,VWS V14.01,2013-12-23 10:00:00,
2013-12-23 04:05:00,20.5,18.5,30.44,SSW,213,1.0,2.0,92,0.00,,---,0.00,VWS V14.01,2013-12-23 10:05:00,
2013-12-23 04:09:00,20.2,18.2,30.44,SSW,213,0.0,0.0,92,0.00,,---,0.00,VWS V14.01,2013-12-23 10:09:00,
2013-12-23 04:11:00,20.4,18.5,30.44,SSW,213,1.0,2.0,92,0.00,,---,0.00,VWS V14.01,2013-12-23 10:11:00,
2013-12-23 04:12:00,20.2,18.2,30.45,SSW,213,0.0,0.0,92,0.00,,---,0.00,VWS V14.01,2013-12-23 10:12:00,
2013-12-23 04:17:00,20.3,18.4,30.44,SSW,213,1.0,2.0,92,0.00,,---,0.00,VWS V14.01,2013-12-23 10:17:00,
2013-12-23 04:22:00,20.2,18.2,30.45,SSW,213,0.0,0.0,92,0.00,,---,0.00,VWS V14.01,2013-12-23 10:22:00,
2013-12-23 04:23:00,20.4,18.5,30.44,SSW,213,0.0,2.0,92,0.00,,---,0.00,VWS V14.01,2013-12-23 10:23:00,
2013-12-23 04:25:00,20.2,18.5,30.45,SSW,213,0.0,0.0,93,0.00,,---,0.00,VWS V14.01,2013-12-23 10:25:00,
2013-12-23 04:26:00,20.3,18.4,30.44,SSW,213,0.0,2.0,92,0.00,,---,0.00,VWS V14.01,2013-12-23 10:26:00,
2013-12-23 04:29:00,20.2,18.2,30.44,SSW,213,0.0,0.0,92,0.00,,---,0.00,VWS V14.01,2013-12-23 10:29:00,
2013-12-23 04:31:00,20.3,18.6,30.45,SSW,213,0.0,0.0,93,0.00,,---,0.00,VWS V14.01,2013-12-23 10:31:00,
2013-12-23 04:38:00,20.6,18.9,30.44,SSW,213,0.0,2.0,93,0.00,,---,0.00,VWS V14.01,2013-12-23 10:38:00,
2013-12-23 04:44:00,20.4,18.5,30.44,SSW,213,0.0,2.0,92,0.00,,---,0.00,VWS V14.01,2013-12-23 10:44:00,
2013-12-23 04:46:00,20.8,19.1,30.44,SSW,213,0.0,1.0,93,0.00,,---,0.00,VWS V14.01,2013-12-23 10:46:00,
2013-12-23 04:52:00,20.9,19.2,30.44,SSW,213,0.0,1.0,93,0.00,,---,0.00,VWS V14.01,2013-12-23 10:52:00,
2013-12-23 04:53:00,20.1,18.1,30.44,SSW,213,0.0,2.0,92,0.00,,---,0.00,VWS V14.01,2013-12-23 10:53:00,
2013-12-23 05:03:00,20.3,18.6,30.45,SSW,213,0.0,0.0,93,0.00,,---,0.00,VWS V14.01,2013-12-23 11:03:00,
2013-12-23 05:13:00,20.3,18.4,30.44,SSW,213,2.0,2.0,92,0.00,,---,0.00,VWS V14.01,2013-12-23 11:13:00,
2013-12-23 05:15:00,20.2,18.2,30.45,SSW,213,0.0,0.0,92,0.00,,---,0.00,VWS V14.01,2013-12-23 11:15:00,
2013-12-23 05:27:00,20.2,18.2,30.45,SSW,213,0.0,0.0,92,0.00,,---,0.00,VWS V14.01,2013-12-23 11:27:00,
2013-12-23 05:29:00,20.3,18.6,30.45,SSW,213,0.0,0.0,93,0.00,,---,0.00,VWS V14.01,2013-12-23 11:29:00,
2013-12-23 05:34:00,20.3,18.4,30.45,SSW,213,1.0,1.0,92,0.00,,---,0.00,VWS V14.01,2013-12-23 11:34:00,
2013-12-23 05:36:00,20.6,18.9,30.44,SSW,213,0.0,0.0,93,0.00,,---,0.00,VWS V14.01,2013-12-23 11:36:00,
2013-12-23 05:37:00,20.4,18.7,30.45,SSW,213,0.0,1.0,93,0.00,,---,0.00,VWS V14.01,2013-12-23 11:37:00,
2013-12-23 05:39:00,20.7,19.0,30.45,SSW,213,0.0,1.0,93,0.00,,---,0.00,VWS V14.01,2013-12-23 11:39:00,
2013-12-23 05:42:00,20.8,19.1,30.44,SSW,213,0.0,1.0,93,0.00,,---,0.00,VWS V14.01,2013-12-23 11:42:00,
2013-12-23 05:46:00,20.1,18.1,30.47,SSW,213,0.0,2.0,92,0.00,,---,0.00,VWS V14.01,2013-12-23 11:46:00,
2013-12-23 05:48:00,20.9,19.2,30.44,SSW,213,0.0,1.0,93,0.00,,---,0.00,VWS V14.01,2013-12-23 11:48:00,
2013-12-23 05:52:00,19.8,17.9,30.47,SSW,213,0.0,2.0,92,0.00,,---,0.00,VWS V14.01,2013-12-23 11:52:00,
2013-12-23 05:54:00,20.9,19.2,30.44,SSW,213,0.0,1.0,93,0.00,,---,0.00,VWS V14.01,2013-12-23 11:54:00,
2013-12-23 05:57:00,20.8,19.1,30.44,SSW,213,0.0,1.0,93,0.00,,---,0.00,VWS V14.01,2013-12-23 11:57:00,
2013-12-23 06:00:00,20.8,18.9,30.44,SSW,213,0.0,0.0,92,0.00,,---,0.00,VWS V14.01,2013-12-23 12:00:00,
2013-12-23 06:06:00,20.5,18.5,30.44,SSW,213,1.0,1.0,92,0.00,,---,0.00,VWS V14.01,2013-12-23 12:06:00,
2013-12-23 06:09:00,20.4,18.5,30.44,SSW,213,2.0,2.0,92,0.00,,---,0.00,VWS V14.01,2013-12-23 12:09:00,
2013-12-23 06:15:00,20.3,18.4,30.44,SSW,213,1.0,3.0,92,0.00,,---,0.00,VWS V14.01,2013-12-23 12:15:00,
2013-12-23 06:21:00,20.3,18.6,30.44,SSW,213,0.0,3.0,93,0.00,,---,0.00,VWS V14.01,2013-12-23 12:21:00,
2013-12-23 06:24:00,20.4,18.7,30.45,SSW,213,0.0,3.0,93,0.00,,---,0.00,VWS V14.01,2013-12-23 12:24:00,
2013-12-23 06:30:00,20.3,18.4,30.45,SSW,213,0.0,0.0,92,0.00,,---,0.00,VWS V14.01,2013-12-23 12:30:00,
2013-12-23 06:39:00,20.4,18.5,30.46,SSW,213,0.0,2.0,92,0.00,,---,0.00,VWS V14.01,2013-12-23 12:39:00,
2013-12-23 06:42:00,20.2,18.2,30.46,SSW,213,0.0,2.0,92,0.00,,---,0.00,VWS V14.01,2013-12-23 12:42:00,
2013-12-23 06:48:00,20.0,18.0,30.47,SSW,213,0.0,2.0,92,0.00,,---,0.00,VWS V14.01,2013-12-23 12:48:00,
2013-12-23 06:54:00,19.8,17.9,30.47,SSW,213,0.0,2.0,92,0.00,,---,0.00,VWS V14.01,2013-12-23 12:54:00,
2013-12-23 06:57:00,19.8,17.9,30.47,SSW,213,0.0,2.0,92,0.00,,---,0.00,VWS V14.01,2013-12-23 12:57:00,
2013-12-23 06:59:00,19.8,17.9,30.47,SSW,213,0.0,2.0,92,0.00,,---,0.00,VWS V14.01,2013-12-23 12:59:00,
2013-12-23 07:00:00,19.8,17.9,30.47,SSW,213,0.0,0.0,92,0.00,,---,0.00,VWS V14.01,2013-12-23 13:00:00,
2013-12-23 07:03:00,19.9,18.0,30.47,SSW,213,0.0,0.0,92,0.00,,---,0.00,VWS V14.01,2013-12-23 13:03:00,
2013-12-23 07:09:00,20.0,18.0,30.48,SSW,213,0.0,0.0,92,0.00,,---,0.00,VWS V14.01,2013-12-23 13:09:00,
2013-12-23 07:12:00,20.0,18.0,30.48,SSW,213,0.0,0.0,92,0.00,,---,0.00,VWS V14.01,2013-12-23 13:12:00,
2013-12-23 07:15:00,20.0,18.0,30.48,SSW,213,0.0,0.0,92,0.00,,---,0.00,VWS V14.01,2013-12-23 13:15:00,
2013-12-23 07:22:00,20.0,18.0,30.48,SSW,213,0.0,0.0,92,0.00,,---,0.00,VWS V14.01,2013-12-23 13:22:00,
2013-12-23 07:25:00,20.0,18.3,30.48,SSW,213,0.0,0.0,93,0.00,,---,0.00,VWS V14.01,2013-12-23 13:25:00,
2013-12-23 07:28:00,20.0,18.0,30.49,SSW,213,0.0,0.0,92,0.00,,---,0.00,VWS V14.01,2013-12-23 13:28:00,
2013-12-23 07:29:00,20.0,18.0,30.49,SSW,213,0.0,0.0,92,0.00,,---,0.00,VWS V14.01,2013-12-23 13:29:00,
2013-12-23 07:31:00,19.9,18.0,30.49,SSW,213,0.0,0.0,92,0.00,,---,0.00,VWS V14.01,2013-12-23 13:31:00,
2013-12-23 07:34:00,19.9,18.0,30.49,SSW,213,0.0,0.0,92,0.00,,---,0.00,VWS V14.01,2013-12-23 13:34:00,
2013-12-23 07:40:00,19.5,17.6,30.49,SSW,213,0.0,2.0,92,0.00,,---,0.00,VWS V14.01,2013-12-23 13:40:00,
2013-12-23 07:43:00,19.3,17.4,30.50,SSW,213,0.0,2.0,92,0.00,,---,0.00,VWS V14.01,2013-12-23 13:43:00,
2013-12-23 07:49:00,19.1,17.2,30.50,SSW,213,0.0,2.0,92,0.00,,---,0.00,VWS V14.01,2013-12-23 13:49:00,
2013-12-23 07:55:00,19.5,17.6,30.50,SSW,213,0.0,2.0,92,0.00,,---,0.00,VWS V14.01,2013-12-23 13:55:00,
2013-12-23 07:58:00,19.7,17.8,30.50,SSW,213,1.0,2.0,92,0.00,,---,0.00,VWS V14.01,2013-12-23 13:58:00,
2013-12-23 08:01:00,19.9,18.0,30.51,SSW,213,0.0,0.0,92,0.00,,---,0.00,VWS V14.01,2013-12-23 14:01:00,
2013-12-23 08:04:00,20.2,18.5,30.51,SSW,213,0.0,0.0,93,0.00,,---,0.00,VWS V14.01,2013-12-23 14:04:00,
2013-12-23 08:10:00,21.2,19.8,30.50,SSW,213,0.0,0.0,94,0.00,,---,0.00,VWS V14.01,2013-12-23 14:10:00,
2013-12-23 08:13:00,21.6,20.1,30.50,SSW,213,0.0,2.0,94,0.00,,---,0.00,VWS V14.01,2013-12-23 14:13:00,
2013-12-23 08:19:00,22.3,20.6,30.50,SSW,213,1.0,2.0,93,0.00,,---,0.00,VWS V14.01,2013-12-23 14:19:00,
2013-12-23 08:22:00,22.6,20.9,30.50,SSW,213,1.0,2.0,93,0.00,,---,0.00,VWS V14.01,2013-12-23 14:22:00,
2013-12-23 08:25:00,22.9,21.2,30.50,SSW,213,1.0,2.0,93,0.00,,---,0.00,VWS V14.01,2013-12-23 14:25:00,
2013-12-23 08:28:00,23.3,21.6,30.51,SSW,213,0.0,2.0,93,0.00,,---,0.00,VWS V14.01,2013-12-23 14:28:00,
2013-12-23 08:29:00,23.4,21.7,30.51,SSW,213,0.0,2.0,93,0.00,,---,0.00,VWS V14.01,2013-12-23 14:29:00,
2013-12-23 08:34:00,24.2,22.5,30.50,SSW,213,0.0,1.0,93,0.00,,---,0.00,VWS V14.01,2013-12-23 14:34:00,
2013-12-23 08:40:00,25.4,23.7,30.50,SSW,202,0.0,1.0,93,0.00,,---,0.00,VWS V14.01,2013-12-23 14:40:00,
2013-12-23 08:46:00,26.4,24.6,30.50,SSW,202,1.0,3.0,93,0.00,,---,0.00,VWS V14.01,2013-12-23 14:46:00,
2013-12-23 08:49:00,27.0,25.2,30.50,SSW,202,0.0,3.0,93,0.00,,---,0.00,VWS V14.01,2013-12-23 14:49:00,
2013-12-23 08:55:00,28.3,26.8,30.50,South,188,1.0,4.0,94,0.00,,---,0.00,VWS V14.01,2013-12-23 14:55:00,
2013-12-23 08:58:00,28.9,27.4,30.50,South,188,0.0,4.0,94,0.00,,---,0.00,VWS V14.01,2013-12-23 14:58:00,
2013-12-23 08:59:00,29.0,27.5,30.51,South,188,0.0,4.0,94,0.00,,---,0.00,VWS V14.01,2013-12-23 14:59:00,
2013-12-23 09:04:00,29.8,28.0,30.51,South,189,0.0,4.0,93,0.00,,---,0.00,VWS V14.01,2013-12-23 15:04:00,
2013-12-23 09:07:00,30.1,28.3,30.51,South,189,0.0,4.0,93,0.00,,---,0.00,VWS V14.01,2013-12-23 15:07:00,
2013-12-23 09:13:00,30.7,28.9,30.51,South,189,0.0,4.0,93,0.00,,---,0.00,VWS V14.01,2013-12-23 15:13:00,
2013-12-23 09:19:00,31.6,29.5,30.50,South,189,0.0,4.0,92,0.00,,---,0.00,VWS V14.01,2013-12-23 15:19:00,
2013-12-23 09:22:00,32.0,29.7,30.50,South,189,0.0,4.0,91,0.00,,---,0.00,VWS V14.01,2013-12-23 15:22:00,
2013-12-23 09:25:00,32.4,30.1,30.50,South,189,0.0,4.0,91,0.00,,---,0.00,VWS V14.01,2013-12-23 15:25:00,
2013-12-23 09:28:00,33.0,30.4,30.51,South,189,0.0,4.0,90,0.00,,---,0.00,VWS V14.01,2013-12-23 15:28:00,
2013-12-23 09:29:00,33.0,30.4,30.51,South,189,0.0,4.0,90,0.00,,---,0.00,VWS V14.01,2013-12-23 15:29:00,
2013-12-23 09:31:00,33.5,30.6,30.51,South,188,0.0,0.0,89,0.00,,---,0.00,VWS V14.01,2013-12-23 15:31:00,
2013-12-23 09:34:00,34.1,30.9,30.52,South,188,0.0,0.0,88,0.00,,---,0.00,VWS V14.01,2013-12-23 15:34:00,
2013-12-23 09:41:00,34.6,30.9,30.52,South,190,0.0,0.0,86,0.00,,---,0.00,VWS V14.01,2013-12-23 15:41:00,
2013-12-23 09:44:00,34.7,31.0,30.52,South,190,0.0,0.0,86,0.00,,---,0.00,VWS V14.01,2013-12-23 15:44:00,
2013-12-23 09:50:00,34.8,30.8,30.52,South,190,0.0,0.0,85,0.00,,---,0.00,VWS V14.01,2013-12-23 15:50:00,
2013-12-23 09:56:00,35.2,31.1,30.52,South,190,0.0,0.0,85,0.00,,---,0.00,VWS V14.01,2013-12-23 15:56:00,
2013-12-23 09:59:00,35.6,31.5,30.52,South,190,0.0,0.0,85,0.00,,---,0.00,VWS V14.01,2013-12-23 15:59:00,
2013-12-23 10:02:00,36.1,31.7,30.52,South,190,0.0,0.0,84,0.00,,---,0.00,VWS V14.01,2013-12-23 16:02:00,
2013-12-23 10:05:00,36.7,32.0,30.52,South,190,0.0,0.0,83,0.00,,---,0.00,VWS V14.01,2013-12-23 16:05:00,
2013-12-23 10:08:00,37.2,31.9,30.52,South,190,0.0,0.0,81,0.00,,---,0.00,VWS V14.01,2013-12-23 16:08:00,
2013-12-23 10:11:00,37.6,31.4,30.52,South,190,0.0,0.0,78,0.00,,---,0.00,VWS V14.01,2013-12-23 16:11:00,
2013-12-23 10:14:00,37.9,31.0,30.53,South,190,0.0,0.0,76,0.00,,---,0.00,VWS V14.01,2013-12-23 16:14:00,
2013-12-23 10:17:00,38.3,31.4,30.53,South,190,0.0,0.0,76,0.00,,---,0.00,VWS V14.01,2013-12-23 16:17:00,
2013-12-23 10:20:00,38.5,31.0,30.52,South,190,0.0,0.0,74,0.00,,---,0.00,VWS V14.01,2013-12-23 16:20:00,
2013-12-23 10:23:00,38.6,30.7,30.53,South,190,0.0,0.0,73,0.00,,---,0.00,VWS V14.01,2013-12-23 16:23:00,
2013-12-23 10:26:00,38.8,31.6,30.53,South,190,0.0,0.0,75,0.00,,---,0.00,VWS V14.01,2013-12-23 16:26:00,
2013-12-23 10:29:00,39.0,31.1,30.53,South,191,2.0,3.0,73,0.00,,---,0.00,VWS V14.01,2013-12-23 16:29:00,
2013-12-23 10:32:00,39.5,30.2,30.53,SSE,154,0.0,2.0,69,0.00,,---,0.00,VWS V14.01,2013-12-23 16:32:00,
2013-12-23 10:35:00,40.0,28.8,30.53,South,186,2.0,4.0,64,0.00,,---,0.00,VWS V14.01,2013-12-23 16:35:00,
2013-12-23 10:38:00,40.3,27.9,30.53,South,186,0.0,4.0,61,0.00,,---,0.00,VWS V14.01,2013-12-23 16:38:00,
2013-12-23 10:41:00,40.6,28.6,30.52,SE,142,2.0,4.0,62,0.00,,---,0.00,VWS V14.01,2013-12-23 16:41:00,
2013-12-23 10:44:00,41.0,28.2,30.52,SE,137,2.0,4.0,60,0.00,,---,0.00,VWS V14.01,2013-12-23 16:44:00,
2013-12-23 10:47:00,41.4,28.2,30.52,SE,132,0.0,4.0,59,0.00,,---,0.00,VWS V14.01,2013-12-23 16:47:00,
2013-12-23 10:50:00,41.6,28.4,30.52,SE,141,0.0,4.0,59,0.00,,---,0.00,VWS V14.01,2013-12-23 16:50:00,
2013-12-23 10:56:00,42.0,27.9,30.52,SE,142,0.0,4.0,57,0.00,,---,0.00,VWS V14.01,2013-12-23 16:56:00,
2013-12-23 10:59:00,42.4,29.1,30.52,SE,142,0.0,0.0,59,0.00,,---,0.00,VWS V14.01,2013-12-23 16:59:00,
2013-12-23 11:02:00,42.8,29.1,30.52,SE,142,0.0,1.0,58,0.00,,---,0.00,VWS V14.01,2013-12-23 17:02:00,
2013-12-23 11:05:00,43.0,28.8,30.52,SE,142,0.0,1.0,57,0.00,,---,0.00,VWS V14.01,2013-12-23 17:05:00,
2013-12-23 11:08:00,43.3,28.7,30.51,SSW,193,2.0,5.0,56,0.00,,---,0.00,VWS V14.01,2013-12-23 17:08:00,
2013-12-23 11:11:00,43.3,28.2,30.51,SSW,193,0.0,5.0,55,0.00,,---,0.00,VWS V14.01,2013-12-23 17:11:00,
2013-12-23 11:14:00,43.4,28.3,30.51,SSW,193,0.0,5.0,55,0.00,,---,0.00,VWS V14.01,2013-12-23 17:14:00,
2013-12-23 11:17:00,43.8,29.1,30.51,SW,236,4.0,5.0,56,0.00,,---,0.00,VWS V14.01,2013-12-23 17:17:00,
2013-12-23 11:20:00,43.8,27.8,30.51,SW,236,2.0,5.0,53,0.00,,---,0.00,VWS V14.01,2013-12-23 17:20:00,
2013-12-23 11:23:00,43.8,27.8,30.51,SW,236,0.0,5.0,53,0.00,,---,0.00,VWS V14.01,2013-12-23 17:23:00,
2013-12-23 11:26:00,44.0,27.0,30.51,SW,232,0.0,5.0,51,0.00,,---,0.00,VWS V14.01,2013-12-23 17:26:00,
2013-12-23 11:29:00,44.4,27.4,30.51,South,178,0.0,5.0,51,0.00,,---,0.00,VWS V14.01,2013-12-23 17:29:00,
2013-12-23 11:35:00,45.1,27.6,30.51,South,190,2.0,3.0,50,0.00,,---,0.00,VWS V14.01,2013-12-23 17:35:00,
2013-12-23 11:38:00,45.2,27.7,30.51,South,188,0.0,5.0,50,0.00,,---,0.00,VWS V14.01,2013-12-23 17:38:00,
2013-12-23 11:41:00,45.2,27.7,30.51,SSE,151,1.0,5.0,50,0.00,,---,0.00,VWS V14.01,2013-12-23 17:41:00,
2013-12-23 11:44:00,45.4,27.9,30.51,SSE,151,0.0,5.0,50,0.00,,---,0.00,VWS V14.01,2013-12-23 17:44:00,
2013-12-23 11:47:00,45.7,28.1,30.51,SSE,151,0.0,5.0,50,0.00,,---,0.00,VWS V14.01,2013-12-23 17:47:00,
2013-12-23 11:50:00,45.9,28.3,30.51,SSE,152,0.0,5.0,50,0.00,,---,0.00,VWS V14.01,2013-12-23 17:50:00,
2013-12-23 11:57:00,46.5,28.4,30.51,SSE,150,1.0,5.0,49,0.00,,---,0.00,VWS V14.01,2013-12-23 17:57:00,
2013-12-23 11:59:00,46.5,27.9,30.51,SE,128,0.0,5.0,48,0.00,,---,0.00,VWS V14.01,2013-12-23 17:59:00,
2013-12-23 12:03:00,46.7,29.1,30.50,SE,128,0.0,0.0,50,0.00,,---,0.00,VWS V14.01,2013-12-23 18:03:00,
2013-12-23 12:06:00,47.2,30.5,30.50,ESE,113,0.0,1.0,52,0.00,,---,0.00,VWS V14.01,2013-12-23 18:06:00,
2013-12-23 12:09:00,47.7,30.0,30.50,ESE,111,1.0,2.0,50,0.00,,---,0.00,VWS V14.01,2013-12-23 18:09:00,
2013-12-23 12:12:00,48.0,29.3,30.50,ESE,115,0.0,2.0,48,0.00,,---,0.00,VWS V14.01,2013-12-23 18:12:00,
2013-12-23 12:15:00,48.1,28.8,30.50,ESE,115,0.0,2.0,47,0.00,,---,0.00,VWS V14.01,2013-12-23 18:15:00,
2013-12-23 12:18:00,48.2,29.5,30.50,ESE,111,0.0,2.0,48,0.00,,---,0.00,VWS V14.01,2013-12-23 18:18:00,
2013-12-23 12:21:00,48.6,30.3,30.50,ENE,63,0.0,3.0,49,0.00,,---,0.00,VWS V14.01,2013-12-23 18:21:00,
2013-12-23 12:24:00,48.9,31.1,30.50,ENE,57,1.0,3.0,50,0.00,,---,0.00,VWS V14.01,2013-12-23 18:24:00,
2013-12-23 12:27:00,49.1,30.3,30.50,NE,45,0.0,3.0,48,0.00,,---,0.00,VWS V14.01,2013-12-23 18:27:00,
2013-12-23 12:30:00,49.3,31.5,30.50,NE,45,0.0,0.0,50,0.00,,---,0.00,VWS V14.01,2013-12-23 18:30:00,
2013-12-23 12:33:00,49.6,30.7,30.50,SSE,164,1.0,3.0,48,0.00,,---,0.00,VWS V14.01,2013-12-23 18:33:00,
2013-12-23 12:36:00,49.5,29.6,30.49,SSE,150,0.0,3.0,46,0.00,,---,0.00,VWS V14.01,2013-12-23 18:36:00,
2013-12-23 12:39:00,49.5,30.6,30.49,SSE,155,0.0,3.0,48,0.00,,---,0.00,VWS V14.01,2013-12-23 18:39:00,
2013-12-23 12:42:00,49.7,29.8,30.49,SSE,155,0.0,3.0,46,0.00,,---,0.00,VWS V14.01,2013-12-23 18:42:00,
2013-12-23 12:45:00,49.6,30.2,30.49,SE,145,1.0,3.0,47,0.00,,---,0.00,VWS V14.01,2013-12-23 18:45:00,
2013-12-23 12:48:00,49.4,30.0,30.49,ESE,120,0.0,3.0,47,0.00,,---,0.00,VWS V14.01,2013-12-23 18:48:00,
2013-12-23 12:51:00,49.3,29.9,30.49,South,188,0.0,3.0,47,0.00,,---,0.00,VWS V14.01,2013-12-23 18:51:00,
2013-12-23 12:57:00,49.4,30.5,30.49,SW,231,0.0,3.0,48,0.00,,---,0.00,VWS V14.01,2013-12-23 18:57:00,
2013-12-23 12:59:00,49.5,30.6,30.49,SW,231,0.0,3.0,48,0.00,,---,0.00,VWS V14.01,2013-12-23 18:59:00,
2013-12-23 13:06:00,50.5,31.0,30.48,NW,317,1.0,4.0,47,0.00,,---,0.00,VWS V14.01,2013-12-23 19:06:00,
2013-12-23 13:12:00,50.6,31.1,30.48,WNW,288,0.0,4.0,47,0.00,,---,0.00,VWS V14.01,2013-12-23 19:12:00,
2013-12-23 13:18:00,50.9,31.4,30.48,SSW,207,2.0,6.0,47,0.00,,---,0.00,VWS V14.01,2013-12-23 19:18:00,
2013-12-23 13:21:00,50.9,31.4,30.48,SSW,209,0.0,6.0,47,0.00,,---,0.00,VWS V14.01,2013-12-23 19:21:00,
2013-12-23 13:24:00,50.8,31.3,30.48,SW,226,0.0,6.0,47,0.00,,---,0.00,VWS V14.01,2013-12-23 19:24:00,
2013-12-23 13:29:00,50.9,32.9,30.47,SW,218,0.0,7.0,50,0.00,,---,0.00,VWS V14.01,2013-12-23 19:29:00,
2013-12-23 13:30:00,50.9,30.9,30.47,SW,218,0.0,0.0,46,0.00,,---,0.00,VWS V14.01,2013-12-23 19:30:00,
2013-12-23 13:33:00,51.1,31.6,30.47,SW,229,0.0,0.0,47,0.00,,---,0.00,VWS V14.01,2013-12-23 19:33:00,
2013-12-23 13:36:00,51.2,30.6,30.47,SW,229,0.0,2.0,45,0.00,,---,0.00,VWS V14.01,2013-12-23 19:36:00,
2013-12-23 13:42:00,51.8,32.8,30.47,WSW,255,0.0,2.0,48,0.00,,---,0.00,VWS V14.01,2013-12-23 19:42:00,
2013-12-23 13:45:00,52.2,34.1,30.47,West,266,0.0,2.0,50,0.00,,---,0.00,VWS V14.01,2013-12-23 19:45:00,
2013-12-23 13:48:00,52.5,33.9,30.47,NE,34,0.0,3.0,49,0.00,,---,0.00,VWS V14.01,2013-12-23 19:48:00,
2013-12-23 13:51:00,52.6,32.4,30.47,NE,46,0.0,3.0,46,0.00,,---,0.00,VWS V14.01,2013-12-23 19:51:00,
2013-12-23 13:55:00,52.7,33.0,30.46,NNW,330,0.0,3.0,47,0.00,,---,0.00,VWS V14.01,2013-12-23 19:55:00,
2013-12-23 13:58:00,52.8,33.7,30.46,SSW,192,0.0,8.0,48,0.00,,---,0.00,VWS V14.01,2013-12-23 19:58:00,
2013-12-23 13:59:00,52.8,33.2,30.46,South,173,0.0,8.0,47,0.00,,---,0.00,VWS V14.01,2013-12-23 19:59:00,
2013-12-23 14:01:00,52.8,32.6,30.46,South,175,0.0,4.0,46,0.00,,---,0.00,VWS V14.01,2013-12-23 20:01:00,
2013-12-23 14:04:00,52.9,32.2,30.46,SSW,195,1.0,6.0,45,0.00,,---,0.00,VWS V14.01,2013-12-23 20:04:00,
2013-12-23 14:10:00,53.1,31.8,30.46,NW,317,3.0,6.0,44,0.00,,---,0.00,VWS V14.01,2013-12-23 20:10:00,
2013-12-23 14:13:00,53.1,32.3,30.45,West,281,0.0,6.0,45,0.00,,---,0.00,VWS V14.01,2013-12-23 20:13:00,
2013-12-23 14:16:00,53.3,32.5,30.45,SE,126,3.0,6.0,45,0.00,,---,0.00,VWS V14.01,2013-12-23 20:16:00,
2013-12-23 14:19:00,53.5,32.7,30.45,SSE,162,1.0,6.0,45,0.00,,---,0.00,VWS V14.01,2013-12-23 20:19:00,
2013-12-23 14:22:00,53.7,32.3,30.45,SW,216,3.0,6.0,44,0.00,,---,0.00,VWS V14.01,2013-12-23 20:22:00,
2013-12-23 14:25:00,53.7,34.0,30.45,SSW,205,4.0,7.0,47,0.00,,---,0.00,VWS V14.01,2013-12-23 20:25:00,
2013-12-23 14:29:00,53.4,31.5,30.45,SE,142,1.0,7.0,43,0.00,,---,0.00,VWS V14.01,2013-12-23 20:29:00,
2013-12-23 14:31:00,53.4,31.5,30.45,SSE,153,0.0,5.0,43,0.00,,---,0.00,VWS V14.01,2013-12-23 20:31:00,
2013-12-23 14:34:00,53.3,31.4,30.45,NNE,25,0.0,5.0,43,0.00,,---,0.00,VWS V14.01,2013-12-23 20:34:00,
2013-12-23 14:37:00,53.2,31.9,30.45,ESE,119,0.0,5.0,44,0.00,,---,0.00,VWS V14.01,2013-12-23 20:37:00,
2013-12-23 14:40:00,53.4,32.6,30.45,ESE,123,1.0,5.0,45,0.00,,---,0.00,VWS V14.01,2013-12-23 20:40:00,
2013-12-23 14:43:00,53.5,32.1,30.45,ESE,123,0.0,5.0,44,0.00,,---,0.00,VWS V14.01,2013-12-23 20:43:00,
2013-12-23 14:46:00,53.7,32.3,30.45,SSE,167,4.0,5.0,44,0.00,,---,0.00,VWS V14.01,2013-12-23 20:46:00,
2013-12-23 14:49:00,53.9,31.9,30.45,SSE,163,0.0,5.0,43,0.00,,---,0.00,VWS V14.01,2013-12-23 20:49:00,
2013-12-23 14:55:00,54.2,34.4,30.45,SW,229,3.0,5.0,47,0.00,,---,0.00,VWS V14.01,2013-12-23 20:55:00,
2013-12-23 14:58:00,54.3,32.9,30.45,WSW,244,4.0,5.0,44,0.00,,---,0.00,VWS V14.01,2013-12-23 20:58:00,
2013-12-23 14:59:00,54.3,32.9,30.45,WSW,237,2.0,5.0,44,0.00,,---,0.00,VWS V14.01,2013-12-23 20:59:00,
2013-12-23 15:01:00,54.4,31.8,30.45,SW,224,0.0,3.0,42,0.00,,---,0.00,VWS V14.01,2013-12-23 21:01:00,
2013-12-23 15:04:00,54.4,31.2,30.45,SSW,208,0.0,3.0,41,0.00,,---,0.00,VWS V14.01,2013-12-23 21:04:00,
2013-12-23 15:07:00,54.5,31.9,30.45,SW,220,4.0,5.0,42,0.00,,---,0.00,VWS V14.01,2013-12-23 21:07:00,
2013-12-23 15:10:00,54.6,31.4,30.45,SW,221,0.0,5.0,41,0.00,,---,0.00,VWS V14.01,2013-12-23 21:10:00,
2013-12-23 15:13:00,54.7,31.5,30.45,SSE,153,0.0,6.0,41,0.00,,---,0.00,VWS V14.01,2013-12-23 21:13:00,
2013-12-23 15:16:00,54.7,31.5,30.45,SSE,151,4.0,6.0,41,0.00,,---,0.00,VWS V14.01,2013-12-23 21:16:00,
2013-12-23 15:19:00,54.7,32.1,30.45,SE,128,0.0,6.0,42,0.00,,---,0.00,VWS V14.01,2013-12-23 21:19:00,
2013-12-23 15:25:00,54.8,31.6,30.45,SSE,159,1.0,6.0,41,0.00,,---,0.00,VWS V14.01,2013-12-23 21:25:00,
2013-12-23 15:28:00,55.0,32.3,30.45,SW,221,4.0,6.0,42,0.00,,---,0.00,VWS V14.01,2013-12-23 21:28:00,
2013-12-23 15:29:00,55.0,31.8,30.45,SSW,210,1.0,6.0,41,0.00,,---,0.00,VWS V14.01,2013-12-23 21:29:00,
2013-12-23 15:34:00,54.8,32.2,30.45,SW,226,5.0,6.0,42,0.00,,---,0.00,VWS V14.01,2013-12-23 21:34:00,
2013-12-23 15:37:00,54.8,32.2,30.45,SW,217,0.0,6.0,42,0.00,,---,0.00,VWS V14.01,2013-12-23 21:37:00,
2013-12-23 15:43:00,54.8,30.3,30.45,SW,231,0.0,6.0,39,0.00,,---,0.00,VWS V14.01,2013-12-23 21:43:00,
2013-12-23 15:49:00,55.3,30.8,30.45,SW,231,0.0,6.0,39,0.00,,---,0.00,VWS V14.01,2013-12-23 21:49:00,
2013-12-23 15:52:00,55.5,31.0,30.45,SSE,155,1.0,6.0,39,0.00,,---,0.00,VWS V14.01,2013-12-23 21:52:00,
2013-12-23 15:55:00,55.3,30.8,30.45,SSE,149,1.0,6.0,39,0.00,,---,0.00,VWS V14.01,2013-12-23 21:55:00,
2013-12-23 15:58:00,55.0,31.1,30.45,SSE,150,3.0,6.0,40,0.00,,---,0.00,VWS V14.01,2013-12-23 21:58:00,
2013-12-23 15:59:00,55.0,30.5,30.45,SSE,150,0.0,6.0,39,0.00,,---,0.00,VWS V14.01,2013-12-23 21:59:00,
2013-12-23 16:04:00,54.6,30.2,30.46,SSE,156,0.0,2.0,39,0.00,,---,0.00,VWS V14.01,2013-12-23 22:04:00,
2013-12-23 16:07:00,54.7,30.2,30.46,SSE,157,0.0,2.0,39,0.00,,---,0.00,VWS V14.01,2013-12-23 22:07:00,
2013-12-23 16:11:00,54.8,33.3,30.46,ESE,115,2.0,2.0,44,0.00,,---,0.00,VWS V14.01,2013-12-23 22:11:00,
2013-12-23 16:14:00,54.5,33.0,30.46,East,101,5.0,6.0,44,0.00,,---,0.00,VWS V14.01,2013-12-23 22:14:00,
2013-12-23 16:17:00,54.0,33.2,30.46,East,83,0.0,6.0,45,0.00,,---,0.00,VWS V14.01,2013-12-23 22:17:00,
2013-12-23 16:20:00,53.7,33.4,30.46,East,82,0.0,6.0,46,0.00,,---,0.00,VWS V14.01,2013-12-23 22:20:00,
2013-12-23 16:23:00,53.5,32.7,30.46,ESE,103,1.0,6.0,45,0.00,,---,0.00,VWS V14.01,2013-12-23 22:23:00,
2013-12-23 16:26:00,53.2,33.0,30.46,ENE,61,1.0,6.0,46,0.00,,---,0.00,VWS V14.01,2013-12-23 22:26:00,
2013-12-23 16:29:00,53.1,33.4,30.46,East,94,2.0,6.0,47,0.00,,---,0.00,VWS V14.01,2013-12-23 22:29:00,
2013-12-23 16:32:00,52.9,33.8,30.46,East,95,3.0,3.0,48,0.00,,---,0.00,VWS V14.01,2013-12-23 22:32:00,
2013-12-23 16:35:00,52.6,33.5,30.46,East,90,3.0,6.0,48,0.00,,---,0.00,VWS V14.01,2013-12-23 22:35:00,
2013-12-23 16:38:00,52.3,33.7,30.46,East,86,5.0,6.0,49,0.00,,---,0.00,VWS V14.01,2013-12-23 22:38:00,
2013-12-23 16:41:00,52.1,33.0,30.46,ESE,105,3.0,6.0,48,0.00,,---,0.00,VWS V14.01,2013-12-23 22:41:00,
2013-12-23 16:44:00,51.8,33.8,30.47,East,86,2.0,6.0,50,0.00,,---,0.00,VWS V14.01,2013-12-23 22:44:00,
2013-12-23 16:50:00,51.3,33.3,30.47,East,87,3.0,6.0,50,0.00,,---,0.00,VWS V14.01,2013-12-23 22:50:00,
2013-12-23 16:53:00,51.0,33.0,30.47,East,101,2.0,6.0,50,0.00,,---,0.00,VWS V14.01,2013-12-23 22:53:00,
2013-12-23 16:56:00,50.8,33.3,30.47,East,97,1.0,6.0,51,0.00,,---,0.00,VWS V14.01,2013-12-23 22:56:00,
2013-12-23 16:59:00,50.6,33.2,30.47,East,96,1.0,6.0,51,0.00,,---,0.00,VWS V14.01,2013-12-23 22:59:00,
2013-12-23 17:02:00,50.4,33.0,30.47,East,101,2.0,5.0,51,0.00,,---,0.00,VWS V14.01,2013-12-23 23:02:00,
2013-12-23 17:08:00,49.7,32.8,30.47,East,93,2.0,7.0,52,0.00,,---,0.00,VWS V14.01,2013-12-23 23:08:00,
2013-12-23 17:11:00,49.4,32.5,30.47,East,99,2.0,7.0,52,0.00,,---,0.00,VWS V14.01,2013-12-23 23:11:00,
2013-12-23 17:14:00,49.2,32.8,30.47,ESE,111,4.0,7.0,53,0.00,,---,0.00,VWS V14.01,2013-12-23 23:14:00,
2013-12-23 17:17:00,48.9,33.0,30.47,ESE,109,2.0,7.0,54,0.00,,---,0.00,VWS V14.01,2013-12-23 23:17:00,
2013-12-23 17:20:00,48.5,32.2,30.47,ESE,110,2.0,7.0,53,0.00,,---,0.00,VWS V14.01,2013-12-23 23:20:00,
2013-12-23 17:23:00,48.0,31.7,30.47,ESE,111,1.0,7.0,53,0.00,,---,0.00,VWS V14.01,2013-12-23 23:23:00,
2013-12-23 17:26:00,47.6,31.8,30.47,ESE,111,0.0,7.0,54,0.00,,---,0.00,VWS V14.01,2013-12-23 23:26:00,
2013-12-23 17:29:00,47.1,31.8,30.47,ESE,107,1.0,2.0,55,0.00,,---,0.00,VWS V14.01,2013-12-23 23:29:00,
2013-12-23 17:32:00,46.7,31.4,30.48,ESE,109,0.0,3.0,55,0.00,,---,0.00,VWS V14.01,2013-12-23 23:32:00,
2013-12-23 17:35:00,46.3,31.5,30.48,ESE,109,2.0,4.0,56,0.00,,---,0.00,VWS V14.01,2013-12-23 23:35:00,
2013-12-23 17:38:00,46.0,31.2,30.48,ESE,109,0.0,4.0,56,0.00,,---,0.00,VWS V14.01,2013-12-23 23:38:00,
2013-12-23 17:41:00,45.7,32.2,30.48,ESE,109,0.0,4.0,59,0.00,,---,0.00,VWS V14.01,2013-12-23 23:41:00,
2013-12-23 17:44:00,45.1,31.6,30.48,ESE,109,0.0,4.0,59,0.00,,---,0.00,VWS V14.01,2013-12-23 23:44:00,
2013-12-23 17:47:00,44.6,31.6,30.48,ESE,109,0.0,4.0,60,0.00,,---,0.00,VWS V14.01,2013-12-23 23:47:00,
2013-12-23 17:50:00,44.2,31.6,30.48,ESE,109,0.0,4.0,61,0.00,,---,0.00,VWS V14.01,2013-12-23 23:50:00,
2013-12-23 17:53:00,43.8,32.8,30.48,ESE,109,0.0,4.0,65,0.00,,---,0.00,VWS V14.01,2013-12-23 23:53:00,
2013-12-23 17:56:00,43.5,31.8,30.48,ESE,109,0.0,4.0,63,0.00,,---,0.00,VWS V14.01,2013-12-23 23:56:00,
2013-12-23 17:59:00,43.3,31.6,30.48,ESE,109,0.0,4.0,63,0.00,,---,0.00,VWS V14.01,2013-12-23 23:59:00,
2013-12-23 18:02:00,43.0,32.1,30.49,ESE,109,0.0,0.0,65,0.00,,---,0.00,VWS V14.01,2013-12-24 00:02:00,
2013-12-23 18:05:00,42.8,31.1,30.49,ESE,109,0.0,0.0,63,0.00,,---,0.00,VWS V14.01,2013-12-24 00:05:00,
2013-12-23 18:08:00,42.5,31.2,30.48,ESE,109,0.0,0.0,64,0.00,,---,0.00,VWS V14.01,2013-12-24 00:08:00,
2013-12-23 18:11:00,42.1,30.8,30.49,ESE,109,0.0,0.0,64,0.00,,---,0.00,VWS V14.01,2013-12-24 00:11:00,
2013-12-23 18:14:00,41.8,31.3,30.49,ESE,109,0.0,0.0,66,0.00,,---,0.00,VWS V14.01,2013-12-24 00:14:00,
2013-12-23 18:17:00,41.5,30.6,30.49,ESE,109,0.0,0.0,65,0.00,,---,0.00,VWS V14.01,2013-12-24 00:17:00,
2013-12-23 18:23:00,40.9,30.4,30.49,ESE,109,0.0,0.0,66,0.00,,---,0.00,VWS V14.01,2013-12-24 00:23:00,
2013-12-23 18:27:00,40.7,31.0,30.49,ESE,109,0.0,0.0,68,0.00,,---,0.00,VWS V14.01,2013-12-24 00:27:00,
2013-12-23 18:30:00,40.5,30.4,30.49,ESE,109,0.0,0.0,67,0.00,,---,0.00,VWS V14.01,2013-12-24 00:30:00,
2013-12-23 18:33:00,40.4,30.7,30.49,ESE,109,0.0,0.0,68,0.00,,---,0.00,VWS V14.01,2013-12-24 00:33:00,
2013-12-23 18:36:00,40.1,30.8,30.49,ESE,109,0.0,0.0,69,0.00,,---,0.00,VWS V14.01,2013-12-24 00:36:00,
2013-12-23 18:39:00,39.8,30.1,30.49,ESE,109,0.0,0.0,68,0.00,,---,0.00,VWS V14.01,2013-12-24 00:39:00,
2013-12-23 18:45:00,38.9,31.0,30.49,ESE,109,0.0,0.0,73,0.00,,---,0.00,VWS V14.01,2013-12-24 00:45:00,
2013-12-23 18:48:00,38.6,31.0,30.49,ESE,109,0.0,0.0,74,0.00,,---,0.00,VWS V14.01,2013-12-24 00:48:00,
2013-12-23 18:54:00,37.8,30.6,30.49,ESE,109,0.0,0.0,75,0.00,,---,0.00,VWS V14.01,2013-12-24 00:54:00,
2013-12-23 18:57:00,37.5,30.6,30.49,ESE,109,0.0,0.0,76,0.00,,---,0.00,VWS V14.01,2013-12-24 00:57:00,
2013-12-23 18:59:00,37.3,30.4,30.49,ESE,109,0.0,0.0,76,0.00,,---,0.00,VWS V14.01,2013-12-24 00:59:00,
2013-12-23 19:03:00,36.9,30.4,30.50,ESE,109,0.0,0.0,77,0.00,,---,0.00,VWS V14.01,2013-12-24 01:03:00,
2013-12-23 19:06:00,36.8,30.6,30.50,ESE,109,0.0,0.0,78,0.00,,---,0.00,VWS V14.01,2013-12-24 01:06:00,
2013-12-23 19:09:00,36.6,30.4,30.50,ESE,109,0.0,0.0,78,0.00,,---,0.00,VWS V14.01,2013-12-24 01:09:00,
2013-12-23 19:12:00,36.4,30.5,30.50,ESE,109,0.0,0.0,79,0.00,,---,0.00,VWS V14.01,2013-12-24 01:12:00,
2013-12-23 19:15:00,36.2,30.0,30.50,ESE,109,0.0,0.0,78,0.00,,---,0.00,VWS V14.01,2013-12-24 01:15:00,
2013-12-23 19:18:00,36.0,29.8,30.50,ESE,109,0.0,0.0,78,0.00,,---,0.00,VWS V14.01,2013-12-24 01:18:00,
2013-12-23 19:21:00,35.8,29.6,30.50,ESE,109,0.0,0.0,78,0.00,,---,0.00,VWS V14.01,2013-12-24 01:21:00,
2013-12-23 19:27:00,35.4,29.9,30.51,ESE,109,0.0,0.0,80,0.00,,---,0.00,VWS V14.01,2013-12-24 01:27:00,
2013-12-23 19:29:00,35.3,29.8,30.50,ESE,109,0.0,0.0,80,0.00,,---,0.00,VWS V14.01,2013-12-24 01:29:00,
2013-12-23 19:30:00,35.3,29.8,30.51,ESE,109,0.0,0.0,80,0.00,,---,0.00,VWS V14.01,2013-12-24 01:30:00,
2013-12-23 19:33:00,35.1,29.9,30.51,ESE,109,0.0,0.0,81,0.00,,---,0.00,VWS V14.01,2013-12-24 01:33:00,
2013-12-23 19:36:00,34.8,29.6,30.51,ESE,109,0.0,0.0,81,0.00,,---,0.00,VWS V14.01,2013-12-24 01:36:00,
2013-12-23 19:39:00,34.6,29.4,30.51,ESE,109,0.0,0.0,81,0.00,,---,0.00,VWS V14.01,2013-12-24 01:39:00,
2013-12-23 19:42:00,34.4,29.2,30.51,ESE,109,0.0,0.0,81,0.00,,---,0.00,VWS V14.01,2013-12-24 01:42:00,
2013-12-23 19:45:00,34.3,29.1,30.52,ESE,109,0.0,0.0,81,0.00,,---,0.00,VWS V14.01,2013-12-24 01:45:00,
2013-12-23 19:48:00,34.1,29.2,30.52,ESE,109,0.0,0.0,82,0.00,,---,0.00,VWS V14.01,2013-12-24 01:48:00,
2013-12-23 19:51:00,34.0,29.1,30.52,ESE,109,0.0,0.0,82,0.00,,---,0.00,VWS V14.01,2013-12-24 01:51:00,
2013-12-23 19:54:00,34.0,29.1,30.52,ESE,109,0.0,0.0,82,0.00,,---,0.00,VWS V14.01,2013-12-24 01:54:00,
2013-12-23 19:57:00,33.9,29.0,30.52,ESE,109,0.0,0.0,82,0.00,,---,0.00,VWS V14.01,2013-12-24 01:57:00,
2013-12-23 20:00:00,33.8,28.9,30.52,ESE,109,0.0,0.0,82,0.00,,---,0.00,VWS V14.01,2013-12-24 02:00:00,
2013-12-23 20:06:00,33.5,28.6,30.52,ESE,109,0.0,0.0,82,0.00,,---,0.00,VWS V14.01,2013-12-24 02:06:00,
2013-12-23 20:09:00,33.4,28.8,30.52,ESE,109,0.0,0.0,83,0.00,,---,0.00,VWS V14.01,2013-12-24 02:09:00,
2013-12-23 20:15:00,33.2,28.6,30.52,ESE,109,0.0,0.0,83,0.00,,---,0.00,VWS V14.01,2013-12-24 02:15:00,
2013-12-23 20:18:00,33.1,28.8,30.52,ESE,109,0.0,0.0,84,0.00,,---,0.00,VWS V14.01,2013-12-24 02:18:00,
2013-12-23 20:21:00,33.0,28.7,30.52,ESE,109,0.0,0.0,84,0.00,,---,0.00,VWS V14.01,2013-12-24 02:21:00,
2013-12-23 20:24:00,33.0,28.7,30.52,ESE,109,0.0,0.0,84,0.00,,---,0.00,VWS V14.01,2013-12-24 02:24:00,
2013-12-23 20:27:00,33.0,28.7,30.52,ESE,109,0.0,0.0,84,0.00,,---,0.00,VWS V14.01,2013-12-24 02:27:00,
2013-12-23 20:29:00,33.0,28.4,30.52,ESE,109,0.0,0.0,83,0.00,,---,0.00,VWS V14.01,2013-12-24 02:29:00,
2013-12-23 20:30:00,33.0,28.7,30.52,ESE,109,0.0,0.0,84,0.00,,---,0.00,VWS V14.01,2013-12-24 02:30:00,
2013-12-23 20:33:00,32.9,28.3,30.52,ESE,109,0.0,0.0,83,0.00,,---,0.00,VWS V14.01,2013-12-24 02:33:00,
2013-12-23 20:36:00,32.8,28.2,30.53,ESE,109,0.0,0.0,83,0.00,,---,0.00,VWS V14.01,2013-12-24 02:36:00,
2013-12-23 20:40:00,32.8,28.2,30.53,ESE,109,0.0,0.0,83,0.00,,---,0.00,VWS V14.01,2013-12-24 02:40:00,
2013-12-23 20:43:00,32.8,28.2,30.53,ESE,109,0.0,0.0,83,0.00,,---,0.00,VWS V14.01,2013-12-24 02:43:00,
2013-12-23 20:46:00,32.7,28.1,30.53,ESE,109,0.0,0.0,83,0.00,,---,0.00,VWS V14.01,2013-12-24 02:46:00,
2013-12-23 20:49:00,32.6,28.0,30.53,ESE,109,0.0,0.0,83,0.00,,---,0.00,VWS V14.01,2013-12-24 02:49:00,
2013-12-23 20:52:00,32.5,27.9,30.53,ESE,109,0.0,0.0,83,0.00,,---,0.00,VWS V14.01,2013-12-24 02:52:00,
2013-12-23 20:55:00,32.4,27.8,30.53,ESE,109,0.0,0.0,83,0.00,,---,0.00,VWS V14.01,2013-12-24 02:55:00,
2013-12-23 20:58:00,32.4,27.8,30.53,ESE,109,0.0,0.0,83,0.00,,---,0.00,VWS V14.01,2013-12-24 02:58:00,
2013-12-23 21:01:00,32.4,28.1,30.53,ESE,109,0.0,0.0,84,0.00,,---,0.00,VWS V14.01,2013-12-24 03:01:00,
2013-12-23 21:07:00,32.3,27.7,30.53,ESE,109,0.0,0.0,83,0.00,,---,0.00,VWS V14.01,2013-12-24 03:07:00,
2013-12-23 21:10:00,32.1,27.5,30.53,ESE,109,0.0,0.0,83,0.00,,---,0.00,VWS V14.01,2013-12-24 03:10:00,
2013-12-23 21:13:00,32.0,27.4,30.54,ESE,109,0.0,0.0,83,0.00,,---,0.00,VWS V14.01,2013-12-24 03:13:00,
2013-12-23 21:16:00,31.9,27.6,30.54,ESE,109,0.0,0.0,84,0.00,,---,0.00,VWS V14.01,2013-12-24 03:16:00,
2013-12-23 21:19:00,31.8,27.8,30.54,ESE,109,0.0,0.0,85,0.00,,---,0.00,VWS V14.01,2013-12-24 03:19:00,
2013-12-23 21:22:00,31.9,27.9,30.54,ESE,109,0.0,0.0,85,0.00,,---,0.00,VWS V14.01,2013-12-24 03:22:00,
2013-12-23 21:28:00,31.8,27.5,30.54,ESE,109,0.0,0.0,84,0.00,,---,0.00,VWS V14.01,2013-12-24 03:28:00,
2013-12-23 21:29:00,31.8,27.5,30.54,ESE,109,0.0,0.0,84,0.00,,---,0.00,VWS V14.01,2013-12-24 03:29:00,
2013-12-23 21:34:00,31.6,27.3,30.54,ESE,109,0.0,0.0,84,0.00,,---,0.00,VWS V14.01,2013-12-24 03:34:00,
2013-12-23 21:37:00,31.4,27.4,30.55,ESE,105,2.0,3.0,85,0.00,,---,0.00,VWS V14.01,2013-12-24 03:37:00,
2013-12-23 21:43:00,31.4,27.4,30.55,ESE,105,1.0,3.0,85,0.00,,---,0.00,VWS V14.01,2013-12-24 03:43:00,
2013-12-23 21:46:00,31.4,27.4,30.55,NE,53,2.0,4.0,85,0.00,,---,0.00,VWS V14.01,2013-12-24 03:46:00,
2013-12-23 21:49:00,31.6,27.6,30.55,NE,53,1.0,4.0,85,0.00,,---,0.00,VWS V14.01,2013-12-24 03:49:00,
2013-12-23 21:52:00,31.8,27.8,30.55,NE,53,0.0,4.0,85,0.00,,---,0.00,VWS V14.01,2013-12-24 03:52:00,
2013-12-23 21:55:00,31.9,27.6,30.55,NE,53,0.0,4.0,84,0.00,,---,0.00,VWS V14.01,2013-12-24 03:55:00,
2013-12-23 21:58:00,31.9,27.3,30.55,NE,53,0.0,4.0,83,0.00,,---,0.00,VWS V14.01,2013-12-24 03:58:00,
2013-12-23 22:03:00,29.3,25.6,30.55,NE,53,0.0,0.0,86,0.00,,---,0.00,VWS V14.01,2013-12-24 04:03:00,
2013-12-23 22:04:00,31.7,27.1,30.55,NE,53,0.0,0.0,83,0.00,,---,0.00,VWS V14.01,2013-12-24 04:04:00,
2013-12-23 22:06:00,29.0,25.4,30.55,NE,53,0.0,0.0,86,0.00,,---,0.00,VWS V14.01,2013-12-24 04:06:00,
2013-12-23 22:07:00,31.7,27.1,30.55,NE,53,0.0,0.0,83,0.00,,---,0.00,VWS V14.01,2013-12-24 04:07:00,
2013-12-23 22:09:00,28.7,25.0,30.56,NE,53,0.0,0.0,86,0.00,,---,0.00,VWS V14.01,2013-12-24 04:09:00,
2013-12-23 22:12:00,28.5,25.1,30.55,NE,53,0.0,0.0,87,0.00,,---,0.00,VWS V14.01,2013-12-24 04:12:00,
2013-12-23 22:13:00,31.6,27.0,30.55,NE,53,0.0,0.0,83,0.00,,---,0.00,VWS V14.01,2013-12-24 04:13:00,
2013-12-23 22:15:00,28.4,25.0,30.55,NE,53,0.0,0.0,87,0.00,,---,0.00,VWS V14.01,2013-12-24 04:15:00,
2013-12-23 22:18:00,28.3,25.2,30.55,NE,53,0.0,0.0,88,0.00,,---,0.00,VWS V14.01,2013-12-24 04:18:00,
2013-12-23 22:19:00,31.4,26.8,30.55,NE,53,0.0,1.0,83,0.00,,---,0.00,VWS V14.01,2013-12-24 04:19:00,
2013-12-23 22:21:00,28.1,25.0,30.55,NE,53,0.0,0.0,88,0.00,,---,0.00,VWS V14.01,2013-12-24 04:21:00,
2013-12-23 22:22:00,31.3,26.8,30.55,NE,53,0.0,1.0,83,0.00,,---,0.00,VWS V14.01,2013-12-24 04:22:00,
2013-12-23 22:24:00,28.0,24.6,30.55,NE,53,0.0,0.0,87,0.00,,---,0.00,VWS V14.01,2013-12-24 04:24:00,
2013-12-23 22:25:00,31.3,26.8,30.55,NE,53,0.0,1.0,83,0.00,,---,0.00,VWS V14.01,2013-12-24 04:25:00,
2013-12-23 22:27:00,27.8,24.7,30.55,NE,53,0.0,0.0,88,0.00,,---,0.00,VWS V14.01,2013-12-24 04:27:00,
2013-12-23 22:29:00,31.2,26.6,30.56,NE,53,0.0,1.0,83,0.00,,---,0.00,VWS V14.01,2013-12-24 04:29:00,
2013-12-23 22:30:00,27.6,24.5,30.55,NE,53,0.0,0.0,88,0.00,,---,0.00,VWS V14.01,2013-12-24 04:30:00,
2013-12-23 22:32:00,31.1,26.5,30.56,NE,53,0.0,0.0,83,0.00,,---,0.00,VWS V14.01,2013-12-24 04:32:00,
2013-12-23 22:33:00,27.4,24.3,30.55,NE,53,0.0,0.0,88,0.00,,---,0.00,VWS V14.01,2013-12-24 04:33:00,
2013-12-23 22:35:00,31.0,26.5,30.56,NE,53,0.0,0.0,83,0.00,,---,0.00,VWS V14.01,2013-12-24 04:35:00,
2013-12-23 22:36:00,27.3,24.5,30.55,NE,53,0.0,0.0,89,0.00,,---,0.00,VWS V14.01,2013-12-24 04:36:00,
2013-12-23 22:38:00,30.8,26.5,30.55,NE,53,0.0,0.0,84,0.00,,---,0.00,VWS V14.01,2013-12-24 04:38:00,
2013-12-23 22:39:00,27.3,24.5,30.55,NE,53,0.0,0.0,89,0.00,,---,0.00,VWS V14.01,2013-12-24 04:39:00,
2013-12-23 22:41:00,30.6,26.4,30.56,NE,53,0.0,0.0,84,0.00,,---,0.00,VWS V14.01,2013-12-24 04:41:00,
2013-12-23 22:42:00,27.2,24.4,30.55,NE,53,0.0,0.0,89,0.00,,---,0.00,VWS V14.01,2013-12-24 04:42:00,
2013-12-23 22:44:00,30.6,26.6,30.56,NE,53,0.0,0.0,85,0.00,,---,0.00,VWS V14.01,2013-12-24 04:44:00,
2013-12-23 22:45:00,27.2,24.4,30.55,NE,53,0.0,0.0,89,0.00,,---,0.00,VWS V14.01,2013-12-24 04:45:00,
2013-12-23 22:48:00,27.1,24.6,30.55,NE,53,0.0,0.0,90,0.00,,---,0.00,VWS V14.01,2013-12-24 04:48:00,
2013-12-23 22:50:00,30.3,26.3,30.55,NE,53,0.0,0.0,85,0.00,,---,0.00,VWS V14.01,2013-12-24 04:50:00,
2013-12-23 22:51:00,27.1,24.6,30.55,NE,53,0.0,0.0,90,0.00,,---,0.00,VWS V14.01,2013-12-24 04:51:00,
2013-12-23 22:53:00,30.0,26.0,30.55,NE,53,0.0,0.0,85,0.00,,---,0.00,VWS V14.01,2013-12-24 04:53:00,
2013-12-23 22:54:00,27.1,24.6,30.55,NE,53,0.0,0.0,90,0.00,,---,0.00,VWS V14.01,2013-12-24 04:54:00,
2013-12-23 22:56:00,29.9,26.0,30.55,NE,53,0.0,0.0,85,0.00,,---,0.00,VWS V14.01,2013-12-24 04:56:00,
2013-12-23 22:57:00,27.0,24.5,30.55,NE,53,0.0,0.0,90,0.00,,---,0.00,VWS V14.01,2013-12-24 04:57:00,
2013-12-23 22:59:00,29.6,25.9,30.55,NE,53,0.0,0.0,86,0.00,,---,0.00,VWS V14.01,2013-12-24 04:59:00,
2013-12-23 23:00:00,27.0,24.5,30.55,NE,53,0.0,0.0,90,0.00,,---,0.00,VWS V14.01,2013-12-24 05:00:00,
2013-12-23 23:03:00,26.9,24.4,30.55,NE,53,0.0,0.0,90,0.00,,---,0.00,VWS V14.01,2013-12-24 05:03:00,
2013-12-23 23:06:00,27.0,24.7,30.55,NE,53,0.0,0.0,91,0.00,,---,0.00,VWS V14.01,2013-12-24 05:06:00,
2013-12-23 23:09:00,27.0,24.7,30.55,NE,53,0.0,0.0,91,0.00,,---,0.00,VWS V14.01,2013-12-24 05:09:00,
2013-12-23 23:12:00,27.1,24.8,30.55,NE,53,0.0,0.0,91,0.00,,---,0.00,VWS V14.01,2013-12-24 05:12:00,
2013-12-23 23:15:00,27.2,24.9,30.55,NE,53,0.0,0.0,91,0.00,,---,0.00,VWS V14.01,2013-12-24 05:15:00,
2013-12-23 23:18:00,27.2,24.9,30.55,NE,53,0.0,0.0,91,0.00,,---,0.00,VWS V14.01,2013-12-24 05:18:00,
2013-12-23 23:21:00,27.1,24.8,30.55,NE,53,0.0,0.0,91,0.00,,---,0.00,VWS V14.01,2013-12-24 05:21:00,
2013-12-23 23:24:00,27.1,24.8,30.55,NE,53,0.0,0.0,91,0.00,,---,0.00,VWS V14.01,2013-12-24 05:24:00,
2013-12-23 23:27:00,27.0,24.7,30.55,NE,53,0.0,0.0,91,0.00,,---,0.00,VWS V14.01,2013-12-24 05:27:00,
2013-12-23 23:30:00,26.9,24.6,30.55,NE,53,0.0,0.0,91,0.00,,---,0.00,VWS V14.01,2013-12-24 05:30:00,
2013-12-23 23:33:00,26.8,24.5,30.54,NE,53,0.0,0.0,91,0.00,,---,0.00,VWS V14.01,2013-12-24 05:33:00,
2013-12-23 23:36:00,26.8,24.5,30.55,NE,53,0.0,0.0,91,0.00,,---,0.00,VWS V14.01,2013-12-24 05:36:00,
2013-12-23 23:39:00,26.7,24.4,30.55,NE,53,0.0,0.0,91,0.00,,---,0.00,VWS V14.01,2013-12-24 05:39:00,
2013-12-23 23:42:00,26.7,24.4,30.55,NE,53,0.0,0.0,91,0.00,,---,0.00,VWS V14.01,2013-12-24 05:42:00,
2013-12-23 23:45:00,26.6,24.3,30.55,NE,53,0.0,0.0,91,0.00,,---,0.00,VWS V14.01,2013-12-24 05:45:00,
2013-12-23 23:48:00,26.4,24.1,30.54,NE,53,0.0,0.0,91,0.00,,---,0.00,VWS V14.01,2013-12-24 05:48:00,
2013-12-23 23:51:00,26.3,24.0,30.54,NE,53,0.0,0.0,91,0.00,,---,0.00,VWS V14.01,2013-12-24 05:51:00,
2013-12-23 23:54:00,26.2,23.9,30.54,NE,53,0.0,0.0,91,0.00,,---,0.00,VWS V14.01,2013-12-24 05:54:00,
2013-12-23 23:57:00,26.0,23.7,30.54,NE,53,0.0,0.0,91,0.00,,---,0.00,VWS V14.01,2013-12-24 05:57:00,